Hourly Weather Barsukovskaya

Today, 21 April, Wednesday

Time Temperature Precipitation Wind Pressure Humidity
00:00 +12°C° 0 mm 3 mps 734 mmHg 64%
01:00 +12°C° 0.2 mm 3 mps 735 mmHg 68%
02:00 +11°C° 0.2 mm 3 mps 735 mmHg 73%
03:00 +10°C° 0.2 mm 3 mps 736 mmHg 78%
04:00 +10°C° 0.7 mm 2 mps 736 mmHg 82%
05:00 +10°C° 0.7 mm 2 mps 737 mmHg 87%
06:00 +10°C° 0.7 mm 1 mps 737 mmHg 91%
07:00 +9°C° 0.5 mm 2 mps 738 mmHg 90%
08:00 +10°C° 0.5 mm 2 mps 738 mmHg 90%
09:00 +10°C° 0.5 mm 2 mps 738 mmHg 89%
10:00 +10°C° 0.5 mm 2 mps 738 mmHg 89%
11:00 +10°C° 0.5 mm 2 mps 739 mmHg 88%
12:00 +12°C° 0.5 mm 2 mps 739 mmHg 88%
13:00 +12°C° 0.3 mm 1 mps 739 mmHg 88%
14:00 +12°C° 0.3 mm 1 mps 739 mmHg 88%
15:00 +12°C° 0.3 mm 1 mps 739 mmHg 89%
16:00 +12°C° 0.2 mm 1 mps 739 mmHg 90%
17:00 +12°C° 0.2 mm 1 mps 740 mmHg 92%
18:00 +12°C° 0.2 mm 1 mps 740 mmHg 93%
19:00 +11°C° 0.2 mm 1 mps 740 mmHg 93%
20:00 +11°C° 0.2 mm 1 mps 740 mmHg 94%
21:00 +10°C° 0.2 mm 2 mps 741 mmHg 94%
22:00 +10°C° 0 mm 2 mps 740 mmHg 94%
23:00 +11°C° 0 mm 1 mps 740 mmHg 93%

Tomorrow, 22 April, Thursday

Time Temperature Precipitation Wind Pressure Humidity
00:00 +11°C° 0 mm 1 mps 740 mmHg 92%
01:00 +11°C° 0 mm 1 mps 740 mmHg 91%
02:00 +11°C° 0 mm 1 mps 740 mmHg 91%
03:00 +11°C° 0 mm 1 mps 740 mmHg 90%
04:00 +11°C° 0 mm 1 mps 740 mmHg 91%
05:00 +11°C° 0 mm 1 mps 740 mmHg 91%
06:00 +11°C° 0 mm 1 mps 740 mmHg 92%
07:00 +12°C° 0.1 mm 2 mps 741 mmHg 91%
08:00 +12°C° 0.1 mm 2 mps 741 mmHg 89%
09:00 +11°C° 0.1 mm 3 mps 741 mmHg 88%
10:00 +12°C° 0 mm 3 mps 741 mmHg 85%
11:00 +12°C° 0 mm 4 mps 741 mmHg 82%
12:00 +13°C° 0 mm 4 mps 741 mmHg 79%
13:00 +13°C° 0 mm 4 mps 741 mmHg 78%
14:00 +13°C° 0 mm 4 mps 741 mmHg 78%
15:00 +13°C° 0 mm 4 mps 741 mmHg 78%
16:00 +13°C° 0.1 mm 4 mps 741 mmHg 80%
17:00 +13°C° 0.1 mm 4 mps 740 mmHg 83%
18:00 +12°C° 0.1 mm 3 mps 740 mmHg 85%
19:00 +12°C° 0.5 mm 3 mps 741 mmHg 88%
20:00 +12°C° 0.5 mm 2 mps 741 mmHg 91%
21:00 +12°C° 0.5 mm 1 mps 741 mmHg 94%
22:00 +11°C° 0.7 mm 1 mps 741 mmHg 94%
23:00 +11°C° 0.7 mm 1 mps 741 mmHg 94%

Day after tomorrow, 23 April, Friday

Time Temperature Precipitation Wind Pressure Humidity
00:00 +11°C° 0.7 mm 1 mps 741 mmHg 94%
01:00 +11°C° 0.1 mm 1 mps 741 mmHg 93%
02:00 +11°C° 0.1 mm 1 mps 741 mmHg 92%
03:00 +11°C° 0.1 mm 1 mps 741 mmHg 92%
04:00 +11°C° 0 mm 1 mps 741 mmHg 93%
05:00 +11°C° 0 mm 1 mps 742 mmHg 93%
06:00 +9°C° 0 mm 2 mps 742 mmHg 94%
07:00 +12°C° 0 mm 2 mps 742 mmHg 89%
08:00 +13°C° 0 mm 2 mps 742 mmHg 84%
09:00 +13°C° 0 mm 3 mps 742 mmHg 79%
10:00 +14°C° 0.1 mm 3 mps 742 mmHg 72%
11:00 +16°C° 0.1 mm 3 mps 741 mmHg 65%
12:00 +17°C° 0.1 mm 3 mps 741 mmHg 58%
13:00 +18°C° 0 mm 3 mps 741 mmHg 55%
14:00 +18°C° 0 mm 3 mps 741 mmHg 51%
15:00 +18°C° 0 mm 3 mps 741 mmHg 48%
16:00 +18°C° 0 mm 3 mps 740 mmHg 53%
17:00 +17°C° 0 mm 2 mps 740 mmHg 58%
18:00 +18°C° 0 mm 1 mps 740 mmHg 63%
19:00 +15°C° 0 mm 1 mps 740 mmHg 65%
20:00 +14°C° 0 mm 1 mps 740 mmHg 67%
21:00 +12°C° 0 mm 1 mps 739 mmHg 69%
22:00 +12°C° 0 mm 1 mps 739 mmHg 71%
23:00 +12°C° 0 mm 1 mps 739 mmHg 73%

24 April, Saturday

Time Temperature Precipitation Wind Pressure Humidity
00:00 +12°C° 0 mm 1 mps 739 mmHg 74%
01:00 +12°C° 0 mm 1 mps 738 mmHg 75%
02:00 +12°C° 0 mm 1 mps 738 mmHg 75%
03:00 +12°C° 0 mm 1 mps 738 mmHg 76%
04:00 +12°C° 0 mm 1 mps 738 mmHg 78%
05:00 +12°C° 0 mm 1 mps 739 mmHg 80%
06:00 +11°C° 0 mm 1 mps 739 mmHg 82%
07:00 +13°C° 0 mm 2 mps 739 mmHg 76%
08:00 +14°C° 0 mm 2 mps 739 mmHg 71%
09:00 +16°C° 0 mm 2 mps 739 mmHg 65%
10:00 +17°C° 0 mm 3 mps 739 mmHg 60%
11:00 +18°C° 0 mm 3 mps 739 mmHg 55%
12:00 +19°C° 0 mm 4 mps 739 mmHg 49%
13:00 +19°C° 0 mm 4 mps 739 mmHg 49%
14:00 +19°C° 0 mm 5 mps 739 mmHg 49%
15:00 +19°C° 0 mm 5 mps 738 mmHg 49%
16:00 +17°C° 0 mm 5 mps 739 mmHg 55%
17:00 +17°C° 0 mm 4 mps 739 mmHg 61%
18:00 +16°C° 0 mm 3 mps 739 mmHg 67%
19:00 +14°C° 0 mm 3 mps 739 mmHg 68%
20:00 +15°C° 0 mm 2 mps 739 mmHg 69%
21:00 +14°C° 0 mm 1 mps 740 mmHg 70%
22:00 +14°C° 0 mm 1 mps 740 mmHg 72%
23:00 +13°C° 0 mm 1 mps 740 mmHg 74%

25 April, Sunday

Time Temperature Precipitation Wind Pressure Humidity
00:00 +13°C° 0 mm 1 mps 740 mmHg 76%
01:00 +12°C° 0 mm 1 mps 740 mmHg 79%
02:00 +12°C° 0 mm 1 mps 739 mmHg 83%
03:00 +11°C° 0 mm 1 mps 739 mmHg 86%
04:00 +11°C° 0 mm 1 mps 739 mmHg 87%
05:00 +11°C° 0 mm 1 mps 739 mmHg 87%
06:00 +11°C° 0 mm 1 mps 739 mmHg 88%
07:00 +12°C° 0.1 mm 1 mps 739 mmHg 87%
08:00 +12°C° 0.1 mm 2 mps 739 mmHg 85%
09:00 +13°C° 0.1 mm 2 mps 738 mmHg 84%
10:00 +13°C° 0.9 mm 2 mps 738 mmHg 87%
11:00 +13°C° 0.9 mm 2 mps 738 mmHg 90%
12:00 +12°C° 0.9 mm 2 mps 737 mmHg 93%
13:00 +12°C° 3 mm 2 mps 737 mmHg 94%
14:00 +12°C° 3 mm 2 mps 737 mmHg 95%
15:00 +11°C° 3 mm 3 mps 737 mmHg 97%
16:00 +10°C° 2.1 mm 3 mps 737 mmHg 97%
17:00 +10°C° 2.1 mm 3 mps 737 mmHg 97%
18:00 +9°C° 2.1 mm 3 mps 737 mmHg 98%
19:00 +9°C° 1.1 mm 3 mps 737 mmHg 97%
20:00 +9°C° 1.1 mm 2 mps 737 mmHg 97%
21:00 +9°C° 1.1 mm 2 mps 737 mmHg 97%
22:00 +9°C° 0.2 mm 2 mps 737 mmHg 97%
23:00 +9°C° 0.2 mm 2 mps 736 mmHg 97%

26 April, Monday

Time Temperature Precipitation Wind Pressure Humidity
00:00 +9°C° 0.2 mm 2 mps 736 mmHg 97%
01:00 +8°C° 1.4 mm 2 mps 736 mmHg 97%
02:00 +8°C° 1.4 mm 2 mps 736 mmHg 97%
03:00 +8°C° 1.4 mm 2 mps 736 mmHg 98%
04:00 +8°C° 1.3 mm 2 mps 736 mmHg 97%
05:00 +8°C° 1.3 mm 2 mps 736 mmHg 97%
06:00 +8°C° 1.3 mm 2 mps 736 mmHg 97%
07:00 +8°C° 0.4 mm 2 mps 736 mmHg 95%
08:00 +9°C° 0.4 mm 1 mps 736 mmHg 94%
09:00 +9°C° 0.4 mm 1 mps 737 mmHg 93%
10:00 +9°C° 0.1 mm 1 mps 737 mmHg 92%
11:00 +10°C° 0.1 mm 1 mps 737 mmHg 91%
12:00 +10°C° 0.1 mm 1 mps 737 mmHg 91%
13:00 +10°C° 0.1 mm 1 mps 737 mmHg 91%
14:00 +10°C° 0.1 mm 1 mps 737 mmHg 92%
15:00 +9°C° 0.1 mm 1 mps 737 mmHg 92%
16:00 +9°C° 0.2 mm 1 mps 737 mmHg 93%
17:00 +9°C° 0.2 mm 1 mps 737 mmHg 94%
18:00 +9°C° 0.2 mm 1 mps 737 mmHg 95%
19:00 +9°C° 0.2 mm 1 mps 737 mmHg 95%
20:00 +9°C° 0.2 mm 1 mps 737 mmHg 95%
21:00 +9°C° 0.2 mm 1 mps 737 mmHg 94%
22:00 +9°C° 0.2 mm 1 mps 737 mmHg 94%
23:00 +9°C° 0.2 mm 1 mps 737 mmHg 93%
Show more